STARLINK-33903, 63828

Orbit data source: Space-Track

STARLINK-33903, 63828 is a payload satellite owned by SpaceX/Seattle (US) in LEO that was launched on Sun, 04 May 2025 UTC via an FALCON 9 launch vehicle from the Air Force Eastern Test Range (AFETR). Payload-class satellites include a variety of spacecraft equipped with specific instruments for various scientific and technological missions. These include communications satellites like Starlink; space stations such as the ISS; scientific satellites like the Hubble; Earth observation satellites from companies like Planet Labs, Umbra, and HawkEye 360; GPS; miniature CubeSats for education and research; and military/defense satellites.

Loading next visibility...
Identifier
63828, 2025-092AA
Orbit
LEO
Last TLE update
16 hours ago
Origin
Manufacturer
SpaceX/Seattle
Mission
Operational spacecraft
Bus & Motor
STARLINK V2MO, Unknown motor
Mass
575 kg wet, ~530 kg dry
Launch date (UTC)
2025-05-04 (1 week ago)
Launch vehicle
FALCON 9
Launch site
Air Force Eastern Test Range (AFETR)
Object type
Payload
Rocket body
Debris
Shape & HBR
Unknown
Radar Cross Section
Medium (>0.1 m² and <1 m²)

Expand to show TLE details & history

TLE from 16 hours ago
0 STARLINK-33903
1 63828U 25092AA  25132.91668981 -.01056255  00000-0 -38008-2 0  9993
2 63828  43.0010  80.0605 0001636 254.7243  95.8628 15.90093760  2560
Epoch: 2025-05-12T22:00Z
Definitive object data (Epoch: 2025-05-12T22:00:01.999Z)
Latitude
-6.48928°
Longitude
-127.83693°
Altitude
302.971 km
Speed
7.727 km/s
True Right ascension
04h 52m 22s
True Declination
-6° 26' 53"
Sunlit
Object was in daylight at TLE epoch
Visualization TLE readout
Latitude
-42.80464°
Longitude
153.97681°
Altitude
318.314 km
Speed
7.718 km/s
Apparent Right ascension
05h 07m 09s
Apparent Declination
-81° 57' 22"
Sunlit
Object is in daylight
Visualization observer readout
Local Sidereal Time
22:42:46
Azimuth
169.489° S
Elevation
-40.297°
Doppler factor
1
Orbital elements
Apogee altitude
305.111 km
Perigee altitude
302.925 km
Semi-major axis
6,682.155 km
Eccentricity
0.0001636
Inclination
43.001°
RAAN
80.0605°
Arg. of periapsis
254.7243°
True anomaly
95.88145°
Mean anomaly
95.8628°
Eccentric anomaly
95.87212°
Mean motion
3.97346 °/min
BSTAR
-0.0038008
Orbital period
90.6 mins
Loading maneuver chart data...
Loading SW <> Apogee altitude chart data...
Loading historical data...
Loading historical data...
Loading historical data...
Loading historical data...
Loading historical data...
Loading historical data...
Loading historical data...

STARLINK-33903 Visibility forecast

Observer location: undefined°, undefined°

Span
Click to sort rows by Start time (UTC) header in descending order
Start Az.
Max El. time (UTC)
Max El. Az.
Max El.
End time (UTC)
End Az.
4 mins2025-05-13 23:54:52.441Z222.985° SW2025-05-13 23:56:52.441Z155.813° SSE33.142°2025-05-13 23:58:52.441Z86.128° E
|